Home   Weather   Portsmouth   Past weeks
Flag for United Kingdom

Past Weather in Portsmouth, England, United Kingdom — Yesterday and Last 2 Weeks

Now
55 °F

Scattered clouds.


Feels Like: 53 °F
Forecast: 58 / 47 °F
Wind: 10 mph from North

Location: Southampton / Weather Centre

Current Time: Oct 21, 2019 at 4:51:01 pm

Latest Report: Oct 21, 2019 at 4:20 pm


Visibility: N/A

Pressure: 30.12 "Hg

Humidity: 72%

Dew Point: 46 °F

Location of PortsmouthLocation

Past Weather in Portsmouth — Graph

°F

Portsmouth Temperature Yesterday

Maximum temperature yesterday: 54 °F (at 12:50 pm)
Minimum temperature yesterday: 39 °F (at 6:50 am)
Average temperature yesterday: 50 °F

High & Low Weather Summary for the Past Weeks

 TemperatureHumidityPressure
High64 °F (Oct 6, 3:20 pm)100% (Oct 17, 6:50 am)30.12 "Hg (Oct 17, 6:50 am)
Low39 °F (Oct 20, 6:50 am)52% (Oct 6, 3:20 pm)29.47 "Hg (Oct 18, 5:50 am)
Average56 °F81%29.74 "Hg
* Reported Oct 6 3:20 pm — Oct 21 3:50 pm, Portsmouth. Weather by CustomWeather, © 2019

Note: Actual official high and low records may vary slightly from our data, if they occured in-between our weather recording intervals... More about our weather records

Advertising

Portsmouth Weather History for the Previous 24 Hours

Scroll right to see more
 ConditionsComfort  
Time TempWeatherWind HumidityBarometerVisibility
3:50 pm
Mon, Oct 21
55 °FScattered clouds.12 mph72%30.12 "HgN/A
3:20 pm57 °FScattered clouds.12 mph63%30.12 "HgN/A
2:50 pm57 °FScattered clouds.13 mph63%30.12 "HgN/A
2:20 pm57 °FScattered clouds.12 mph67%30.12 "HgN/A
1:50 pm55 °FScattered clouds.13 mph72%30.12 "HgN/A
1:20 pm55 °FPartly sunny.9 mph72%30.12 "HgN/A
12:50 pm55 °FPartly sunny.10 mph72%30.12 "HgN/A
12:20 pm55 °FPartly sunny.12 mph77%30.12 "HgN/A
11:50 am55 °FPartly sunny.12 mph77%30.09 "HgN/A
11:20 am54 °FPartly sunny.10 mph82%30.09 "HgN/A
10:50 am54 °FPartly sunny.9 mph82%30.09 "HgN/A
9:50 am52 °FScattered clouds.9 mph88%30.07 "HgN/A
9:20 am52 °FScattered clouds.9 mph88%30.07 "HgN/A
8:50 am52 °FScattered clouds.10 mph82%30.07 "HgN/A
8:20 am52 °FScattered clouds.8 mph82%30.04 "HgN/A
7:50 am52 °FScattered clouds.8 mph82%30.04 "HgN/A
7:20 am52 °FPassing clouds.9 mph82%30.01 "HgN/A
6:50 am52 °FPassing clouds.9 mph82%30.01 "HgN/A
6:20 am52 °FPassing clouds.9 mph82%30.01 "HgN/A
5:50 am52 °FPartly cloudy.8 mph82%30.01 "HgN/A
10:20 pm
Sun, Oct 20
52 °FPartly cloudy.8 mph82%29.95 "HgN/A
9:50 pm52 °FPassing clouds.6 mph77%29.95 "HgN/A
9:20 pm52 °FPassing clouds.7 mph77%29.92 "HgN/A
8:50 pm50 °FPassing clouds.8 mph82%29.92 "HgN/A
8:20 pm50 °FPassing clouds.3 mph88%29.92 "HgN/A
7:50 pm50 °FPassing clouds.5 mph88%29.92 "HgN/A
7:20 pm50 °FPassing clouds.5 mph88%29.92 "HgN/A
6:50 pm50 °FPassing clouds.10 mph88%29.92 "HgN/A
6:20 pm52 °FPassing clouds.10 mph77%29.89 "HgN/A
5:50 pm52 °FPassing clouds.10 mph77%29.89 "HgN/A
5:20 pm52 °FPassing clouds.9 mph77%29.89 "HgN/A
4:50 pm54 °FPassing clouds.13 mph72%29.89 "HgN/A
4:20 pm54 °FScattered clouds.12 mph77%29.89 "HgN/A
Weather by CustomWeather, © 2019

See weather overview